Voltar ao catálogo

STARLINK-33556

AtivoComunicaçõesVLEO
NORAD 62109·PAYLOAD·🇺🇸 United States

Lançado Nov 25, 2024 de Cape Canaveral Space Force Station

Loading…

Próximas Passagens (próximas 24 horas)

TLE

AtualizadoSource: CelesTrak SupGP

Época: Sep 15, 2026, 03:03 UTC

1 62109C 24220X   26258.12756944 -.00036041  00000+0 -13056-2 0  2589
2 62109  42.9995 215.4982 0001125 268.5398 160.9747 15.27590429    18

Acompanhe STARLINK-33556 em tempo real com AllMySat

Download on the App Store